Regional Weather Roundup
Issued by NWS Nashville, TN

Home | Current Version | Previous Version | Text Only | Print | Product List | Glossary On
Versions: 1 2 3 4 5 6 7 8 9 10 11 12 13 14 15 16 17 18 19 20 21 22 23 24 25 26 27 28 29 30 31 32 33 34 35 36 37 38 39 40 41 42 43 44 45 46 47 48 49 50
000
ASUS44 KOHX 230410
RWROHX
MIDDLE TENNESSEE HOURLY WEATHER ROUNDUP
NATIONAL WEATHER SERVICE NASHVILLE TN
1100 PM CDT THU JUN 22 2017

NOTE: "FAIR" INDICATES FEW OR NO CLOUDS BELOW 12,000 FEET WITH
NO SIGNIFICANT WEATHER AND/OR OBSTRUCTIONS TO VISIBILITY.

* THESE REPORTS ARE NOT UNDER NWS QUALITY CONTROL AND MAY NOT
  REPORT WEATHER SUCH AS PRECIPITATION AND FOG.


TNZ005>011-023>034-057-059-062>066-078-080-230500
...NORTHERN MIDDLE TENNESSEE...

CITY           SKY/WX    TMP DP  RH WIND       PRES   REMARKS
CLARKSVILLE    MOCLDY    76  72  87 S6        29.85R
CROSSVILLE     CLOUDY    72  70  93 VRB3      30.03R
GALLATIN       CLOUDY    75  73  94 S5        29.93R
NASHVILLE      CLOUDY    76  73  91 S8        29.90R
PORTLAND       MOCLDY    75  73  94 S14G21    29.89S
SMYRNA         CLOUDY    76  73  91 S12       29.91S
SPARTA         CLOUDY    75  72  88 S7        29.95F
WEST NASHVILLE MOCLDY    79  73  83 S12       29.86F
$$
TNZ056-058-060-061-075>077-079-093>097-230500
...SOUTHERN MIDDLE TENNESSEE...

CITY           SKY/WX    TMP DP  RH WIND       PRES   REMARKS
COLUMBIA       CLOUDY    77  75  94 S8        29.87S
FAYETTEVILLE   CLOUDY    75  73  94 S13       29.94R
MCMINNVILLE    MOCLDY    77  73  88 S5        29.96S
MURFREESBORO   MOCLDY    76  71  84 S8        29.91R
PULASKI        CLOUDY    77  73  88 S12G20    29.91R
SHELBYVILLE    CLOUDY    77  73  88 S12       29.92F
TULLAHOMA      MOCLDY    73  72  94 S9        29.96S
WINCHESTER     MOCLDY    75  72  88 S12         N/A
$$


...KEY TO REMARKS...
VSB - VISIBILITY IN MILES
WCI - WIND CHILL INDEX
HX  - HEAT INDEX




USA.gov is the U.S. government's official web portal to all federal, state and local government web resources and services.